Regional Weather Roundup
Issued by NWS

Home | Current Version | Previous Version | Graphics & Text | Print | Product List | Glossary On
Versions: 1 2 3 4 5 6 7 8 9 10 11 12 13 14 15 16 17 18 19 20 21 22 23 24 25 26 27 28 29 30 31 32 33 34 35 36 37 38 39 40 41 42 43 44 45 46 47 48 49 50
000
ASUS44 KMEG 221900
RWRTN
TENNESSEE HOURLY STATE WEATHER ROUNDUP
NATIONAL WEATHER SERVICE MEMPHIS TN
200 PM CDT FRI MAY 22 2015

TNZ002-004-019-021-049-052-054-088>092-222000-
WEST TENNESSEE

CITY           SKY/WX    TMP DP  RH WIND       PRES   REMARKS
MEMPHIS INTL   MOSUNNY   73  45  36 CALM      30.27F
NWS MEMPHIS      N/A     71 N/A N/A MISG        N/A
JACKSON        SUNNY     72  47  40 VRB3      30.27F
DYERSBURG      SUNNY     70  39  32 W3        30.30R
PARIS          SUNNY     70  43  37 NE7       30.28F
LEXINGTON      SUNNY     72  45  37 N5        30.26F
$$

TNZ008-025-027-028-033-062-065-066-222000-
NORTH MIDDLE TENNESSEE

CITY           SKY/WX    TMP DP  RH WIND       PRES   REMARKS
NASHVILLE      MOSUNNY   72  43  35 NE3       30.28S
CLARKSVILLE    SUNNY     71  43  36 VRB3      30.27F
COOKEVILLE     SUNNY     72  45  37 VRB5      30.26F
CROSSVILLE     SUNNY     66  40  38 VRB3      30.28F
$$

TNZ061-075-076-078-094-096-097-222000-
SOUTH MIDDLE TENNESSEE

CITY           SKY/WX    TMP DP  RH WIND       PRES   REMARKS
FAYETTEVILLE   SUNNY    N/A N/A N/A MISG      30.26S
TULLAHOMA      SUNNY     68  41  37 NE3       30.27S
WINCHESTER     SUNNY     70  45  40 VRB5      30.25S
MCMINNVILLE    SUNNY     70  46  43 N10       30.27S
COLUMBIA       SUNNY     72  43  35 NE8       30.26S
SHELBYVILLE    SUNNY     72  46  40 CALM      30.27F
$$

TNZ017-018-042-046-047-222000-
NORTHEAST TENNESSEE

CITY           SKY/WX    TMP DP  RH WIND       PRES   REMARKS
TRI CITIES     MOSUNNY   69  38  32 NE6       30.26F
ELIZABETHTON   CLEAR     66  37  34 W8        30.25F
$$

TNZ012-013-036-069-073-074-222000-
CENTRAL EAST TENNESSEE

CITY           SKY/WX    TMP DP  RH WIND       PRES   REMARKS
KNOXVILLE      MOSUNNY   70  41  34 VRB7      30.24F
OAK RIDGE      SUNNY     72  42  34 VRB7      30.27S
GATLINBURG     CLEAR     66  39  37 VRB6      30.25S
$$

TNZ083-085-099-222000-
SOUTHEAST TENNESSEE

CITY           SKY/WX    TMP DP  RH WIND       PRES   REMARKS
CHATTANOOGA    MOSUNNY   71  45  39 N13       30.24F
$$

SKY/WX REPORTED AS FAIR MEANS FEW OR NO CLOUDS BELOW
12 THOUSAND FEET.



USA.gov is the U.S. government's official web portal to all federal, state and local government web resources and services.